sat.trackr.live / text

‹ back to catalog

QIANFAN-45

NORAD 62246 · 2024-232K

PAYLOAD ACTIVE UNKNOWN

§ Identity

Operator
Country
PRC
Launch date
2024-12-05
Launch site
TAISC
Launch vehicle
Mass (kg)
RCS (m²)

External: N2YO · Heavens-Above · Gunter

§ Orbital elements

Epoch: 2026-09-22T19:38:07.152576Z

Period
106.59 min
Inclination
89.0171°
Eccentricity
0.0016291
Mean motion
13.51029188 rev/d
Perigee alt
1,056.3 km
Apogee alt
1,080.6 km
Semi-major
7,446.6 km
B*
1.1810e-4
RAAN
12.7307°
Arg perigee
94.1836°
Mean anomaly
266.1178°
Rev number
13,761

§ Raw data

QIANFAN-451 62246U 24232K   26265.81813834  .00000088  00000+0  11810-3 0  99992 62246  89.0171  12.7307 0016291  94.1836 266.1178 13.51029188137615

JSON: /api/v1/satellites/62246 · /tle

For live sub-satellite position, see the globe view (requires WebGL).

§ Visibility from observer

Set your observer location to see the next 7 days of passes ≥ 10°. The values pass through the URL so the page stays shareable.

No JS? Fill the form by hand. The geolocation button needs JavaScript.